Starlink 32376

operational
NORAD ID: 61707 Int'l Des: 2024-196 Owner: SPXS Country: US Constellation: starlink
LEOCIRCULAR

About Starlink 32376

Description loading...

Live Position

Loading 3D Globe...

Upcoming Passes

Altitude History

Altitude vs Time

uPlot chart will show altitude changes over time

Two-Line Element Set

1 61707U 24196A 25305.49258275 -.00000152 00000-0 69932-5 0 9993
2 61707 53.1604 336.4803 0001484 86.4176 273.6995 15.30199084 57540
Epoch: Nov 1, 2025 • Age: 9 hours

Current Status

Altitude 487.7 km
Velocity 7.62 km/s
Sub-Earth Point -36.38°S, 163.07°W
Launch Date Oct 30, 2024
Age 1 years
Type internet

Technical Details

Classification Payload
Mass 730.00 kg
Dry Mass 700.00 kg
Total Mass 730.00 kg
Length 0.30 m
Diameter 4.10 m
Span 29.00 m
Shape Box + pan
Manufacturer SPXS
Bus Type Starlink V2M
Phase Status In Orbit
Owner/State SPXS/US

Large Constellations

Loading constellations...